Location: Góry Miechowskie
(50.3599°N, 20.1803°E)
Time: 07:17:11
(UTC+00:00)

Cosmos 1461 - Pass Details

Date: 13 September 2024
Orbit: 489 x 565 km, 65.0° (Epoch: 12 October)

Event Time Altitude Azimuth Distance (km) Brightness Sun altitude
Exits shadow 01:44:33 17° 326° (NW) 1,310 4.7 -22.5°
Maximum altitude 01:44:52 17° 332° (NNW) 1,304 4.8 -22.4°
Drops below altitude 10° 01:47:25 10° 15° (NNE) 1,694 6.0 -22.1°
Sets 01:50:11 0° 36° (NE) 2,587 7.5 -21.8°
